Weather History for Buffalo, WY

Change the Weather History Date:

Tuesday, April 16, 2013

  Actual Average Record
Temperature  
Mean Temperature 23 °F 43 °F  
Max Temperature 26 °F 54 °F 74 °F (2006)
Min Temperature 20 °F 33 °F 20 °F (2013)
Degree Days  
Heating Degree Days 42 22  
Month to date heating degree days 450 385  
Since 1 July heating degree days 6334 6575  
Cooling Degree Days 0 0  
Month to date cooling degree days 0 0  
Year to date cooling degree days 0 0  
Moisture  
Dew Point 18 °F    
Average Humidity 83    
Maximum Humidity 92    
Minimum Humidity 74    
Precipitation  
Precipitation 0.08 in 0.04 in 0.08 in (2013)
Month to date precipitation 0.34 0.50  
Year to date precipitation 1.03 2.19  
Sea Level Pressure  
Sea Level Pressure 30.12 in    
Wind  
Wind Speed 7 mph (NNE)    
Max Wind Speed 15 mph    
Max Gust Speed 22 mph    
Visibility 2 miles    
Events Fog , Snow    
T = Trace of Precipitation, MM = Missing Value Source: NWS Daily Summary

Daily Weather History Graph

Daily Weather History Graph

Search for Another Location

Airport:

Trip Planner

Search our weather history database for the weather conditions in past years. The results will help you decide how hot, cold, wet, or windy it might be!

Date:

Astronomy

Apr. 16, 2013 Rise Set
Actual Time 6:20 AM MDT 7:53 PM MDT
Civil Twilight 5:50 AM MDT 8:23 PM MDT
Nautical Twilight 5:13 AM MDT 9:00 PM MDT
Astronomical Twilight 4:34 AM MDT 9:40 PM MDT
Moon 10:36 AM MDT (4/16) 12:58 AM MDT (4/16)
Length of Visible Light 14h 33m
Length of Day
13h 32m
Waxing Crescent, 34% of the Moon is Illuminated
Apr 16
Waxing Crescent
Apr 18
First Quarter
Apr 25
Full
May 2
Last Quarter
May 9
New

Hourly Weather History & Observations

Time (MDT) Temp. Windchill Dew Point Humidity Pressure Visibility Wind Dir Wind Speed Gust Speed Precip Events Conditions
12:53 AM 19.9 °F - 15.1 °F 81% 30.16 in 10.0 mi Calm Calm - N/A   Mostly Cloudy
1:53 AM 21.0 °F - 15.1 °F 78% 30.16 in 10.0 mi Calm Calm - N/A   Overcast
2:53 AM 19.9 °F - 15.1 °F 81% 30.16 in 10.0 mi Calm Calm - N/A   Overcast
3:53 AM 19.9 °F 13.4 °F 15.1 °F 81% 30.15 in 10.0 mi NNW 4.6 mph - N/A   Clear
4:53 AM 19.9 °F 13.4 °F 15.1 °F 81% 30.16 in 10.0 mi North 4.6 mph - N/A   Clear
5:31 AM 21.2 °F 14.9 °F 15.8 °F 80% 30.04 in 10.0 mi North 4.6 mph - N/A   Mostly Cloudy
6:53 AM 21.0 °F 13.4 °F 17.1 °F 85% 30.18 in 10.0 mi North 5.8 mph - N/A   Overcast
7:21 AM 21.2 °F 10.9 °F 15.8 °F 80% 30.06 in 6.0 mi NNE 9.2 mph - 0.00 in Snow Light Snow
7:38 AM 21.2 °F 10.1 °F 15.8 °F 80% 30.05 in 1.8 mi North 10.4 mph - 0.00 in Snow Light Snow
7:43 AM 21.2 °F 10.9 °F 17.6 °F 86% 30.06 in 1.0 mi NNE 9.2 mph - 0.00 in Snow Light Snow
7:49 AM 21.2 °F 10.9 °F 15.8 °F 80% 30.06 in 0.5 mi NNE 9.2 mph - 0.00 in Snow Snow
7:53 AM 21.0 °F 10.6 °F 16.0 °F 81% 30.19 in 0.5 mi NNE 9.2 mph - 0.00 in Snow Snow
8:24 AM 21.2 °F 11.7 °F 15.8 °F 80% 30.06 in 0.8 mi North 8.1 mph - 0.00 in Snow Light Snow
8:53 AM 21.0 °F 11.4 °F 16.0 °F 81% 30.19 in 0.8 mi NNE 8.1 mph - 0.00 in Snow Light Snow
9:30 AM 21.2 °F 10.1 °F 17.6 °F 86% 30.06 in 0.8 mi NNE 10.4 mph - 0.01 in Snow Light Snow
9:40 AM 21.2 °F 11.7 °F 15.8 °F 80% 30.06 in 0.8 mi NNE 8.1 mph - 0.01 in Snow Light Snow
9:53 AM 21.0 °F 9.9 °F 16.0 °F 81% 30.19 in 0.8 mi NNE 10.4 mph - 0.01 in Snow Light Snow
10:12 AM 21.2 °F 9.5 °F 15.8 °F 80% 30.06 in 0.8 mi North 11.5 mph - 0.00 in Snow Light Snow
10:18 AM 21.2 °F 9.5 °F 15.8 °F 80% 30.06 in 1.2 mi North 11.5 mph - 0.00 in Snow Light Snow
10:31 AM 21.2 °F 10.9 °F 15.8 °F 80% 30.06 in 2.0 mi North 9.2 mph - 0.00 in Snow Light Snow
10:41 AM 21.2 °F 10.1 °F 17.6 °F 86% 30.06 in 1.5 mi NNE 10.4 mph - 0.00 in Snow Light Snow
10:53 AM 21.9 °F 10.4 °F 16.0 °F 78% 30.19 in 1.2 mi NNE 11.5 mph - 0.00 in Snow Light Snow
11:15 AM 21.2 °F 11.7 °F 15.8 °F 80% 30.07 in 0.8 mi NNE 8.1 mph - 0.00 in Snow Light Snow
11:44 AM 21.2 °F 12.6 °F 17.6 °F 86% 30.08 in 0.2 mi NE 6.9 mph - 0.01 in Snow Heavy Snow
11:53 AM 21.9 °F 12.5 °F 16.0 °F 78% 30.22 in 0.8 mi NE 8.1 mph - 0.01 in Snow Light Snow
11:55 AM 21.2 °F 12.6 °F 15.8 °F 80% 30.08 in 1.0 mi NE 6.9 mph - 0.00 in Snow Light Snow
12:04 PM 21.2 °F 12.6 °F 17.6 °F 86% 30.08 in 0.8 mi NE 6.9 mph - 0.00 in Snow Light Snow
12:16 PM 23.0 °F 13.9 °F 17.6 °F 80% 30.07 in 0.8 mi NNE 8.1 mph - 0.00 in Snow Light Snow
12:24 PM 24.8 °F 16.1 °F 17.6 °F 74% 30.07 in 1.2 mi North 8.1 mph - 0.00 in Snow Light Snow
12:51 PM 24.8 °F 16.1 °F 17.6 °F 74% 30.06 in 1.0 mi NNE 8.1 mph - 0.01 in Snow Light Snow
12:53 PM 24.1 °F 15.2 °F 18.0 °F 77% 30.19 in 1.0 mi NNE 8.1 mph - 0.01 in Snow Light Snow
1:06 PM 24.8 °F 16.1 °F 19.4 °F 80% 30.05 in 1.8 mi North 8.1 mph - 0.00 in Snow Light Snow
1:14 PM 24.8 °F 15.3 °F 17.6 °F 74% 30.05 in 2.5 mi North 9.2 mph - 0.00 in Snow Light Snow
1:18 PM 24.8 °F 15.3 °F 17.6 °F 74% 30.04 in 1.5 mi NNE 9.2 mph - 0.00 in Snow Light Snow
1:22 PM 24.8 °F 15.3 °F 19.4 °F 80% 30.04 in 0.8 mi NNE 9.2 mph - 0.00 in Snow Light Snow
1:35 PM 24.8 °F 14.6 °F 19.4 °F 80% 30.05 in 1.0 mi North 10.4 mph - 0.00 in Snow Light Snow
1:38 PM 24.8 °F 15.3 °F 19.4 °F 80% 30.06 in 2.0 mi North 9.2 mph - 0.00 in Snow Light Snow
1:47 PM 24.8 °F 12.4 °F 19.4 °F 80% 30.07 in 1.0 mi NNE 15.0 mph 21.9 mph 0.00 in Snow Light Snow
1:48 PM 24.1 °F 12.0 °F 19.0 °F 81% 30.20 in 1.0 mi NNE 13.8 mph 21.9 mph 0.00 in Snow Light Snow
1:55 PM 24.8 °F 14.6 °F 19.4 °F 80% 30.06 in 0.5 mi NNE 10.4 mph 21.9 mph 0.00 in Snow Snow
2:04 PM 24.8 °F 15.3 °F 17.6 °F 74% 30.06 in 1.0 mi NE 9.2 mph - 0.00 in Snow Light Snow
2:18 PM 24.8 °F 14.6 °F 19.4 °F 80% 30.05 in 0.5 mi North 10.4 mph - 0.00 in Snow Snow
2:32 PM 24.8 °F 15.3 °F 17.6 °F 74% 30.07 in 1.2 mi North 9.2 mph - 0.00 in Snow Light Snow
2:35 PM 24.8 °F 15.3 °F 17.6 °F 74% 30.07 in 2.0 mi North 9.2 mph - 0.00 in Snow Light Snow
2:41 PM 24.8 °F 14.6 °F 19.4 °F 80% 30.06 in 1.5 mi NNE 10.4 mph - 0.00 in Snow Light Snow
2:45 PM 24.8 °F 16.1 °F 19.4 °F 80% 30.07 in 0.8 mi NNE 8.1 mph - 0.00 in Snow Light Snow
2:53 PM 25.0 °F 14.8 °F 19.9 °F 81% 30.21 in 1.0 mi NNE 10.4 mph - 0.00 in Snow Light Snow
2:58 PM 24.8 °F 14.6 °F 19.4 °F 80% 30.08 in 1.5 mi NNE 10.4 mph - 0.00 in Snow Light Snow
3:07 PM 24.8 °F 15.3 °F 19.4 °F 80% 30.07 in 3.0 mi NNE 9.2 mph - 0.00 in Snow Light Snow
3:15 PM 24.8 °F 14.6 °F 19.4 °F 80% 30.07 in 5.0 mi NE 10.4 mph - 0.00 in Snow Light Snow
3:27 PM 24.8 °F 15.3 °F 19.4 °F 80% 30.07 in 1.8 mi NE 9.2 mph - 0.00 in Snow Light Snow
3:53 PM 25.0 °F 14.8 °F 19.0 °F 78% 30.21 in 1.0 mi NE 10.4 mph - 0.00 in Snow Light Snow
4:02 PM 24.8 °F 17.9 °F 19.4 °F 80% 30.07 in 2.0 mi NNE 5.8 mph - 0.00 in Snow Light Snow
4:13 PM 24.8 °F 16.9 °F 19.4 °F 80% 30.07 in 1.0 mi NNE 6.9 mph - 0.01 in Snow Light Snow
4:21 PM 24.8 °F 16.1 °F 19.4 °F 80% 30.08 in 0.5 mi NE 8.1 mph - 0.01 in Snow Snow
4:34 PM 24.8 °F 16.9 °F 17.6 °F 74% 30.08 in 0.5 mi NNE 6.9 mph - 0.01 in Snow Snow
4:46 PM 24.8 °F 16.9 °F 19.4 °F 80% 30.08 in 0.8 mi NE 6.9 mph - 0.02 in Snow Light Snow
4:53 PM 24.1 °F 17.0 °F 19.0 °F 81% 30.22 in 0.8 mi NE 5.8 mph - 0.02 in Snow Light Snow
5:09 PM 24.8 °F 16.9 °F 19.4 °F 80% 30.09 in 0.5 mi North 6.9 mph - 0.00 in Fog , Snow Snow
5:26 PM 24.8 °F 16.1 °F 19.4 °F 80% 30.11 in 0.8 mi NE 8.1 mph - 0.01 in Snow Light Snow
5:32 PM 24.8 °F 16.9 °F 19.4 °F 80% 30.10 in 1.0 mi NE 6.9 mph - 0.01 in Snow Light Snow
5:39 PM 24.8 °F 16.1 °F 19.4 °F 80% 30.10 in 1.0 mi NNE 8.1 mph - 0.01 in Snow Light Snow
5:46 PM 24.8 °F 16.9 °F 19.4 °F 80% 30.11 in 1.0 mi ENE 6.9 mph - 0.01 in Snow Light Snow
5:50 PM 24.8 °F 17.9 °F 19.4 °F 80% 30.10 in 1.2 mi NE 5.8 mph - 0.01 in Snow Light Snow
5:53 PM 24.1 °F 15.2 °F 19.0 °F 81% 30.23 in 1.2 mi NNE 8.1 mph - 0.01 in Snow Light Snow
6:07 PM 24.8 °F 16.1 °F 19.4 °F 80% 30.11 in 1.0 mi NE 8.1 mph - 0.00 in Snow Light Snow
6:16 PM 24.8 °F 16.1 °F 19.4 °F 80% 30.11 in 1.2 mi NNE 8.1 mph - 0.00 in Snow Light Snow
6:24 PM 24.8 °F 15.3 °F 19.4 °F 80% 30.10 in 1.5 mi NNE 9.2 mph - 0.00 in Snow Light Snow
6:27 PM 24.8 °F 16.1 °F 17.6 °F 74% 30.11 in 2.0 mi NNE 8.1 mph - 0.00 in Snow Light Snow
6:36 PM 24.8 °F 16.9 °F 17.6 °F 74% 30.11 in 3.0 mi NNE 6.9 mph - 0.00 in Snow Light Snow
6:41 PM 24.8 °F 16.9 °F 17.6 °F 74% 30.11 in 1.8 mi NNE 6.9 mph - 0.00 in Snow Light Snow
6:50 PM 24.8 °F 16.1 °F 17.6 °F 74% 30.11 in 2.0 mi North 8.1 mph - 0.00 in Snow Light Snow
6:53 PM 24.1 °F 16.0 °F 18.0 °F 77% 30.25 in 4.0 mi North 6.9 mph - 0.00 in Snow Light Snow
7:00 PM 23.0 °F 12.4 °F 19.4 °F 86% 30.11 in 3.0 mi North 10.4 mph - 0.00 in Snow Light Snow
7:03 PM 23.0 °F 12.4 °F 19.4 °F 86% 30.11 in 1.8 mi NNW 10.4 mph - 0.00 in Snow Light Snow
7:06 PM 23.0 °F 13.9 °F 19.4 °F 86% 30.11 in 1.0 mi NNW 8.1 mph - 0.00 in Snow Light Snow
7:09 PM 23.0 °F 13.1 °F 19.4 °F 86% 30.11 in 0.8 mi NNW 9.2 mph - 0.01 in Snow Light Snow
7:24 PM 21.2 °F 10.1 °F 17.6 °F 86% 30.12 in 1.0 mi NNW 10.4 mph - 0.01 in Snow Light Snow
7:37 PM 21.2 °F 11.7 °F 17.6 °F 86% 30.13 in 2.0 mi NW 8.1 mph - 0.01 in Snow Light Snow
7:53 PM 21.9 °F 13.4 °F 19.0 °F 89% 30.27 in 3.0 mi NNW 6.9 mph - 0.01 in Snow Light Snow
8:04 PM 21.2 °F 12.6 °F 19.4 °F 93% 30.14 in 5.0 mi NNW 6.9 mph - 0.00 in Snow Light Snow
8:34 PM 21.2 °F 11.7 °F 19.4 °F 93% 30.14 in 5.0 mi North 8.1 mph - 0.00 in Snow Light Snow
8:53 PM 21.9 °F 13.4 °F 18.0 °F 85% 30.28 in 6.0 mi NNE 6.9 mph - 0.00 in Snow Light Snow
9:17 PM 21.2 °F 13.6 °F 17.6 °F 86% 30.16 in 6.0 mi NNE 5.8 mph - 0.00 in Snow Light Snow
9:53 PM 21.9 °F 12.5 °F 18.0 °F 85% 30.31 in 3.0 mi North 8.1 mph - 0.00 in Snow Light Snow
9:59 PM 21.2 °F 10.9 °F 17.6 °F 86% 30.17 in 2.5 mi North 9.2 mph - 0.00 in Snow Light Snow
10:09 PM 21.2 °F 12.6 °F 17.6 °F 86% 30.17 in 3.0 mi North 6.9 mph - 0.00 in Snow Light Snow
10:18 PM 21.2 °F 12.6 °F 17.6 °F 86% 30.17 in 4.0 mi North 6.9 mph - 0.00 in Snow Light Snow
10:53 PM 21.0 °F 10.6 °F 18.0 °F 88% 30.30 in 3.0 mi North 9.2 mph - 0.00 in Snow Light Snow
11:22 PM 21.2 °F 11.7 °F 17.6 °F 86% 30.16 in 5.0 mi North 8.1 mph - 0.00 in Snow Light Snow
11:39 PM 21.2 °F 14.9 °F 17.6 °F 86% 30.16 in 3.0 mi NW 4.6 mph - 0.00 in Snow Light Snow
11:53 PM 21.0 °F 16.2 °F 18.0 °F 88% 30.32 in 4.0 mi NW 3.5 mph - 0.00 in Snow Light Snow